ニオワイズ彗星

463P/NEOWISE (2012)

English version
Home page
Updated on July 27, 2023

---------------------------------------------------------------------

・ プロフィール

・ 軌道要素

                    Epoch = 2012 Dec. 19.0 TT
     T = 2012 Dec. 13.08878 TT        Peri. = 215.64663
     e = 0.8221860                    Node  = 284.12932 2000.0
     q = 0.5302778 AU                 Incl. =  29.62731
       a =  2.9822050 AU   n = 0.19138057   P =   5.15 years

・ 光度変化

        H = 17.6  G = 0.15

---------------------------------------------------------------------

軌道要素は、CBET 5252に掲載されたものです。
光度グラフはComet for Windowsで作成したものです。

---------------------------------------------------------------------

Copyright(C) Seiichi Yoshida (comet@aerith.net). All rights reserved.